Weather History for Corona, CA

Change the Weather History Date:

Saturday, October 20, 2012

  Actual Average (KONT) Record (KONT)
Temperature  
Mean Temperature 68 °F 67 °F  
Max Temperature 77 °F 80 °F 101 °F (2003)
Min Temperature 59 °F 54 °F 49 °F (2002)
Degree Days  
Heating Degree Days 0 2  
Month to date heating degree days 17  
Since 1 July heating degree days 20  
Cooling Degree Days 3 4  
Month to date cooling degree days 102  
Year to date cooling degree days 1653  
Growing Degree Days 18 (Base 50)    
Moisture  
Dew Point 61 °F    
Average Humidity 83    
Maximum Humidity 100    
Minimum Humidity 54    
Precipitation  
Precipitation 0.00 in 0.02 in 1.97 in (2004)
Month to date precipitation 0.31  
Year to date precipitation 11.18  
Since 1 July precipitation 0.80  
Snow  
Snow 0.00 in - - ()
Month to date snowfall  
Year to date snowfall  
Since 1 July snowfall  
Snow Depth -    
Sea Level Pressure  
Sea Level Pressure 29.88 in    
Wind  
Wind Speed - (North)    
Max Wind Speed -    
Max Gust Speed -    
Visibility 8 miles    
Events Rain    
T = Trace of Precipitation, MM = Missing Value Source: NWS Daily Summary

Daily Weather History Graph

Daily Weather History Graph

Search for Another Location

Airport:

Trip Planner

Search our weather history database for the weather conditions in past years. The results will help you decide how hot, cold, wet, or windy it might be!

Date:

Astronomy

Oct. 20, 2012 Rise Set
Actual Time 6:59 AM PDT 6:09 PM PDT
Civil Twilight 6:34 AM PDT 6:35 PM PDT
Nautical Twilight 6:05 AM PDT 7:04 PM PDT
Astronomical Twilight 5:36 AM PDT 7:33 PM PDT
Moon 12:31 PM PDT 11:07 PM PDT
Length of Visible Light 12h 00m
Length of Day
11h 09m
Waxing Crescent, 35% of the Moon is Illuminated
Oct 20
Waxing Crescent
Oct 21
First Quarter
Oct 29
Full
Nov 6
Last Quarter
Nov 13
New

Hourly Weather History & Observations

Time (PDT) Temp. Dew Point Humidity Pressure Visibility Wind Dir Wind Speed Gust Speed Precip Events Conditions
12:56 AM 59.9 °F 59.9 °F 100% 29.89 in 7.0 mi North - - N/A   Overcast
1:56 AM 63.9 °F 63.0 °F 97% 29.88 in 7.0 mi North - - N/A   Overcast
2:26 AM 64.4 °F 62.6 °F 94% 29.90 in 8.0 mi North - - N/A   Overcast
2:56 AM 63.9 °F 61.9 °F 93% 29.87 in 8.0 mi North - - N/A   Overcast
3:56 AM 63.9 °F 61.9 °F 93% 29.86 in 7.0 mi North - - N/A   Overcast
4:56 AM 63.9 °F 61.9 °F 93% 29.87 in 6.0 mi North - - N/A   Overcast
5:56 AM 63.9 °F 63.0 °F 97% 29.88 in 5.0 mi North - - N/A   Overcast
6:56 AM 63.0 °F 63.0 °F 100% 29.89 in 3.0 mi North - - N/A   Overcast
7:20 AM 62.6 °F 62.6 °F 100% 29.90 in 1.8 mi North - - N/A   Overcast
7:46 AM 62.6 °F 62.6 °F 100% 29.91 in 1.2 mi North - - N/A   Overcast
7:56 AM 61.9 °F 61.9 °F 100% 29.90 in 1.5 mi North - - 0.00 in Rain Light Rain
8:17 AM 62.6 °F 62.6 °F 100% 29.92 in 2.5 mi North - - 0.00 in   Overcast
8:25 AM 62.6 °F 62.6 °F 100% 29.92 in 3.0 mi North - - 0.00 in   Overcast
9:24 AM 64.4 °F 64.4 °F 100% 29.93 in 7.0 mi North - - N/A   Mostly Cloudy
9:42 AM 64.4 °F 64.4 °F 100% 29.93 in 6.0 mi North - - N/A   Scattered Clouds
9:56 AM 64.9 °F 61.9 °F 90% 29.92 in 7.0 mi North - - N/A   Mostly Cloudy
10:03 AM 64.4 °F 62.6 °F 94% 29.93 in 7.0 mi North - - N/A   Mostly Cloudy
10:10 AM 66.2 °F 62.6 °F 88% 29.93 in 7.0 mi North - - N/A   Mostly Cloudy
10:56 AM 68.0 °F 61.0 °F 78% 29.91 in 9.0 mi North - - N/A   Overcast
11:06 AM 68.0 °F 60.8 °F 78% 29.92 in 10.0 mi North - - N/A   Overcast
11:16 AM 68.0 °F 60.8 °F 78% 29.92 in 9.0 mi North - - N/A   Overcast
11:56 AM 68.9 °F 59.9 °F 73% 29.89 in 10.0 mi North - - N/A   Mostly Cloudy
12:56 PM 70.9 °F 59.0 °F 66% 29.86 in 10.0 mi North - - N/A   Overcast
1:16 PM 73.4 °F 60.8 °F 65% 29.87 in 10.0 mi North - - N/A   Overcast
1:42 PM 73.4 °F 59.0 °F 61% 29.85 in 10.0 mi North - - N/A   Mostly Cloudy
1:56 PM 75.9 °F 59.0 °F 56% 29.83 in 10.0 mi North - - N/A   Mostly Cloudy
2:05 PM 77.0 °F 59.0 °F 54% 29.84 in 10.0 mi North - - N/A   Mostly Cloudy
2:43 PM 73.4 °F 57.2 °F 57% 29.83 in 10.0 mi North - - N/A   Overcast
2:56 PM 74.8 °F 59.0 °F 58% 29.82 in 10.0 mi North - - N/A   Mostly Cloudy
3:56 PM 72.0 °F 59.9 °F 66% 29.82 in 10.0 mi North - - N/A   Overcast
4:56 PM 68.0 °F 59.9 °F 75% 29.82 in 10.0 mi North - - N/A   Mostly Cloudy
5:56 PM 65.8 °F 59.9 °F 81% 29.81 in 10.0 mi North - - N/A   Overcast
6:56 PM 65.8 °F 59.9 °F 81% 29.82 in 10.0 mi North - - N/A   Mostly Cloudy
7:56 PM 65.8 °F 59.0 °F 79% 29.84 in 10.0 mi North - - N/A   Overcast
8:56 PM 64.9 °F 59.0 °F 81% 29.85 in 10.0 mi North - - N/A   Overcast
9:56 PM 64.9 °F 59.0 °F 81% 29.86 in 10.0 mi North - - N/A   Overcast
10:19 PM 64.4 °F 59.0 °F 83% 29.88 in 10.0 mi North - - N/A   Mostly Cloudy
10:56 PM 64.9 °F 59.0 °F 81% 29.87 in 10.0 mi North - - N/A   Mostly Cloudy
11:56 PM 64.9 °F 59.0 °F 81% - - North - - N/A   Mostly Cloudy